星链-32019 (STARLINK-32019)

导读 | 星芒AI

STARLINK-32019 是 SpaceX Starlink 计划中的一颗低轨通信卫星,旨在为全球用户提供高速互联网服务。该卫星于近期发射,部署在近地轨道,具备先进的通信技术和激光链路,以提升数据传输效率和网络稳定性。作为 Starlink 卫星群的一部分,它有助于扩大覆盖范围,特别是在偏远和网络基础设施薄弱的地区。该计划致力于构建一个全球性的宽带网络,推动互联网接入的普及与公平。

基本信息
目录编号:
60147
目录名称:
STARLINK-32019
国际标识:
2024-120N
轨道中心:
EARTH
卫星名称:
星链-32019
卫星全名:
星链-32019 (STARLINK-32019)
卫星状态:
在轨 (已飞行541 天)
发射日期:
2024-06-27 UTC
国别 :
美国 (US)
星等 :
--
轨道信息
数据来源 国际轨道数据 AOE轨道数据
星历时间 2025-12-19T14:00:40+0800
21小时前
查看轨道信息
2025-12-15T21:00:00+0800
4天前
查看轨道信息
半长轴 6853.38km 6853.41km
偏心率 0.0001439 0.0001872
轨道倾角 53.162° 53.160°
近地点辐角 96.233° 75.060°
升交点赤经 333.334° 350.565°
平近点角 263.884° 2.986°
近地点 474.256km 473.992km
远地点 476.23km 476.558km
周期 94.106分钟 94.107分钟
每日圈数 15.301907 15.301807
详细信息
固有亮度:
5
最大亮度:
2.5
卫星平台:
Starlink V1.0
覆盖范围:
全球
运营商:
太空探索技术公司
运营商所在国:
美国
制造商(研发单位):
太空探索技术公司
制造商所在国:
美国
使用方式:
暂无
卫星简介
Starlink 计划是 SpaceX 推出的全球卫星互联网项目,通过发射低轨道卫星,为全球尤其是偏远地区提供高速、低延迟的互联网服务。自 2019 年起,Starlink 已部署数千颗卫星,旨在缩小全球数字鸿沟,推动互联网普及。该项目还为军事、航空等行业提供通信支持,带来广泛经济效益。
2D轨道图
3D轨道图
轨道高度分析图
轨道倾角分析图
轨道综合分析图
查看轨道综合分析图